FENGYUN 1C DEB, 30549

Orbit data source: Space-Track

FENGYUN 1C DEB, 30549 is space debris in SSO originally from a launch on Mon, 10 May 1999 UTC launched from the Taiyaun Space Center, China (TSC). Fengyun 1C debris stems from the Chinese weather satellite Fengyun-1C, which was intentionally destroyed by a Chinese anti-satellite missile in 2007. This event dramatically increased the amount of space debris, with thousands of trackable fragments posing hazards to satellites and human spaceflight. The Fengyun 1C debris cloud has become a focal point in discussions about space sustainability and the need for international regulations to prevent the creation of new debris.

Loading next visibility...
Identifier
30549, 1999-025AKP
Orbit
SSO
Country
Flag of CNCN / PRC
Related business
Manufacturer
Unknown
Mission
Spacecraft
Bus & Motor
Unknown
Mass
Unknown
Launch date (UTC)
1999-05-10 (27 years ago)
Launch vehicle
Unknown
Launch site
Taiyaun Space Center, China (TSC)
Object type
Payload
Rocket body
Debris
Shape & HBR
Unknown shape, 0.1 m
Radar Cross Section
Small (<0.1 m²)

Expand to show TLE details & history
Last TLE update: 15 hours ago

TLE from 15 hours ago
0 FENGYUN 1C DEB
1 30549U 99025AKP 26123.76436620  .00003438  00000-0  16717-2 0  9996
2 30549  98.4889 238.9831 0285107 218.3491 139.7098 13.99769839972801
Epoch: 2026-05-03T18:20Z
TLE epoch observation values (Epoch: 2026-05-03T18:20:41.239Z)
Latitude
-0.00005°
Longitude
102.14805°
Altitude
1,058.073 km
Speed
7.242 km/s
True Right ascension
15h 55m 55s
True Declination
0° 00' 00"
Sunlit
Object was in full shadow at epoch
Visualization orbit readout
Latitude
Unknown
Longitude
Unknown
Altitude
Unknown
Speed
Unknown
Apparent Right ascension
Unknown
Apparent Declination
Unknown
Sunlit
N/A
Visualization observer readout
Local Sidereal Time
17:26:30
Azimuth
Unknown
Elevation
Unknown
Doppler factor
Unknown
Orbital elements
Apogee altitude
1,099.034 km
Perigee altitude
684.494 km
Semi-major axis
7,269.901 km
Eccentricity
0.02851
Inclination
98.4889°
RAAN
238.9831°
Arg. of periapsis
218.3491°
True anomaly
141.76608°
Mean anomaly
139.7098°
Eccentric anomaly
140.74349°
Mean motion
3.50147 °/min
Orbital period
102.81 mins
BSTAR
0.0016717
Loading maneuver chart data...
Computing Atmospheric mass density...

Documentation

Showing up to 5 results
|